Regional Weather Roundup
Issued by NWS Albany, NY

Home | Current Version | Previous Version | Text Only | Print | Product List | Glossary On
Versions: 1 2 3 4 5 6 7 8 9 10 11 12 13 14 15 16 17 18 19 20 21 22 23 24 25 26 27 28
000
ASUS41 KALY 061110
RWRALY

NEW YORK STATE HOURLY WEATHER ROUNDUP
NATIONAL WEATHER SERVICE ALBANY NY
600 AM EST TUE DEC 06 2016

NOTE: "FAIR" INDICATES FEW OR NO CLOUDS BELOW 12,000 FEET WITH NO
SIGNIFICANT WEATHER AND/OR NO OBSTRUCTIONS TO VISIBILITY.

NYZ032-033-038>043-046>054-057>066-NYZ062>081-082-084-061200-
EAST


CITY           SKY/WX    TMP DP  RH WIND       PRES   REMARKS
ALBANY         PTCLDY    34  30  85 W5        30.12R WCI  30
GLENS FALLS    MOCLDY    31  27  85 CALM      30.11R FOG
POUGHKEEPSIE   CLEAR     25  23  92 CALM      30.12S
NEWBURGH       CLEAR     25  25 100 CALM      30.13R
MONTGOMERY     CLEAR     27  24  89 CALM      30.11R
WHITE PLAINS   CLEAR     32  27  81 NW5       30.11R WCI  27
ISLIP          PTCLDY    30  27  88 CALM      30.12R
NEW YORK CITY  PTCLDY    42  29  59 NW7       30.13R
CENTRAL PARK   CLEAR     39  27  62 CALM      30.15R
$$

NYZ005>009-017-018-044>046-055-056-061200-
CENTRAL


CITY           SKY/WX    TMP DP  RH WIND       PRES   REMARKS
FULTON         PTCLDY    32  30  92 CALM      30.10S
SYRACUSE       MOCLDY    29  27  92 E3        30.10F
ROME           CLEAR     27  27 100 CALM      30.13S FOG
ELMIRA         CLOUDY    22  19  89 CALM      30.11R
BINGHAMTON     CLEAR     27  24  89 SE3       30.06S
MONTICELLO     CLEAR     25  19  80 CALM      30.09S
$$

NYZ026>034-041>043-087-061200-
NORTH


CITY           SKY/WX    TMP DP  RH WIND       PRES   REMARKS
WATERTOWN      CLEAR     22  19  89 E3        30.11S FOG
FORT DRUM      NOT AVBL
OGDENSBURG     CLOUDY    28  28  99 CALM      30.12S
MASSENA        CLOUDY    32  29  88 CALM      30.15R
SARANAC LAKE   CLOUDY    30  27  88 CALM      30.04R
PLATTSBURGH    CLOUDY    30  27  88 CALM      30.14R
$$

NYZ001>004-010>016-019>021-085-061200-
WEST


CITY           SKY/WX    TMP DP  RH WIND       PRES   REMARKS
NIAGARA FALLS  CLEAR     26  22  84 E3        30.05F
BUFFALO        CLOUDY    30  25  81 E8        30.06S WCI  22
DUNKIRK        PTCLDY    31  27  85 E5        30.04F WCI  26
JAMESTOWN      CLOUDY    32  27  80 SE7       29.99F WCI  26
WELLSVILLE     CLOUDY    29  25  85 SE6       30.04R WCI  23
ROCHESTER      CLEAR     26  24  92 SW3       30.09F
PENN YAN       CLEAR     30  26  85 SW5       30.09F WCI  25
$$

             KEY
       WCI = WIND CHILL INDEX
       VSB = VISIBILITY
       HX  = HEAT INDEX
$$




USA.gov is the U.S. government's official web portal to all federal, state and local government web resources and services.